Starlink 3838

operational
NORAD ID: 52352 Int'l Des: 2022-045 Owner: SPXS Country: US Constellation: starlink
LEOCIRCULAR

关于 Starlink 3838

正在加载描述...

实时位置

正在加载3D地球...

即将过境

高度历史

Altitude vs Time

uPlot chart will show altitude changes over time

两行轨道根数

1 52352U 22045X 26035.23400975 .00000608 00000-0 56299-4 0 9995
2 52352 53.2196 349.3103 0001581 96.7968 263.3205 15.08839773210733
Epoch: Feb 4, 2026 • Age: 20 hours

当前状态

高度 558.1 km
速度 7.58 km/s
星下点 -50.02°S, 118.39°E
发射日期 Apr 29, 2022
运行时间 3.7 years
类型 internet

技术详情

分类 Payload
质量 297.00 kg
干质量 275.00 kg
总质量 297.00 kg
长度 0.20 m
直径 2.80 m
跨度 9.00 m
形状 Box + pan
制造商 SPXS
平台类型 Starlink
阶段状态 In Orbit
所有者/国家 SPXS/US

大型星座

Loading constellations...